Regional Weather Roundup
Issued by NWS

Home | Current Version | Previous Version | Graphics & Text | Print | Product List | Glossary On
Versions: 1 2 3 4 5 6 7 8 9 10 11 12 13 14 15 16 17 18 19 20 21 22 23 24 25 26 27 28 29 30 31 32 33 34 35 36 37 38 39 40 41 42 43 44 45 46 47 48 49 50
000
ASUS44 KMEG 281800
RWRTN
TENNESSEE HOURLY STATE WEATHER ROUNDUP
NATIONAL WEATHER SERVICE MEMPHIS TN
100 PM CDT SAT MAY 28 2016

TNZ002-004-019-021-049-052-054-088>092-281900-
WEST TENNESSEE

CITY           SKY/WX    TMP DP  RH WIND       PRES   REMARKS
MEMPHIS INTL   PTSUNNY   82  67  60 S9        30.02S
NWS MEMPHIS      N/A     84 N/A N/A MISG        N/A
JACKSON        PTSUNNY   83  67  58 SW8       30.03F
DYERSBURG      CLOUDY    81  68  65 S9        30.01S
UNION CITY     MOSUNNY   81  70  69 S8        30.01F
PARIS          SUNNY     79  64  61 S12       30.05S
LEXINGTON      MOSUNNY   82  64  54 SW14      30.04F
$$

TNZ008-025-027-028-033-062-065-066-281900-
NORTH MIDDLE TENNESSEE

CITY           SKY/WX    TMP DP  RH WIND       PRES   REMARKS
NASHVILLE      CLOUDY    80  63  55 S9        30.09F
CLARKSVILLE    CLOUDY    79  63  57 S9        30.05F
COOKEVILLE     PTSUNNY   82  63  51 S5        30.11F
CROSSVILLE     SUNNY     80  59  48 SE10      30.18F
$$

TNZ061-075-076-078-094-096-097-281900-
SOUTH MIDDLE TENNESSEE

CITY           SKY/WX    TMP DP  RH WIND       PRES   REMARKS
TULLAHOMA      SUNNY     75  66  73 SE5       30.14F
WINCHESTER     SUNNY     77  64  65 SW5       30.13F
MCMINNVILLE    MOSUNNY   81  64  57 SW9       30.13S
COLUMBIA       MOSUNNY   82  70  65 SE10      30.07S
SHELBYVILLE    SUNNY     79  66  65 SE5       30.12F
$$

TNZ017-018-042-046-047-281900-
NORTHEAST TENNESSEE

CITY           SKY/WX    TMP DP  RH WIND       PRES   REMARKS
TRI CITIES     PTSUNNY   84  57  39 N6        30.17F
$$

TNZ012-013-036-069-073-074-281900-
CENTRAL EAST TENNESSEE

CITY           SKY/WX    TMP DP  RH WIND       PRES   REMARKS
KNOXVILLE      PTSUNNY   81  61  50 N6        30.14F
OAK RIDGE      MOSUNNY   82  61  48 NW3       30.16F
GATLINBURG       N/A     81  61  50 VRB5      30.14F
$$

TNZ083-085-099-281900-
SOUTHEAST TENNESSEE

CITY           SKY/WX    TMP DP  RH WIND       PRES   REMARKS
CHATTANOOGA    PTSUNNY   85  57  38 VRB7G17   30.12F
$$

SKY/WX REPORTED AS FAIR MEANS FEW OR NO CLOUDS BELOW
12 THOUSAND FEET.




USA.gov is the U.S. government's official web portal to all federal, state and local government web resources and services.